This is the latest recevied weather packets stored in our database for station/object SV9TNF-4. If no packets are shown the sender has not sent any weather packets the latest 10 day(s).
| Time | Temp. | Humidity | Pressure | Rain* | Wind** | Luminosity | Snow |
|---|---|---|---|---|---|---|---|
| 1777667429 | 16.11° C | 68% | 1014.9 hPa | 0 mm | 40.23 m/s, 26° | - | - |
| 1777667129 | 16.11° C | 68% | 1014.9 hPa | 0 mm | 40.23 m/s, 26° | - | - |
| 1777666830 | 16.11° C | 68% | 1014.9 hPa | 0 mm | 40.23 m/s, 26° | - | - |
| 1777666530 | 16.11° C | 68% | 1014.9 hPa | 0 mm | 40.23 m/s, 26° | - | - |
| 1777666229 | 16.11° C | 69% | 1014.9 hPa | 0 mm | 43.36 m/s, 15° | - | - |
| 1777665930 | 16.11° C | 69% | 1014.9 hPa | 0 mm | 43.36 m/s, 15° | - | - |
| 1777665629 | 15.56° C | 72% | 1015.2 hPa | 0 mm | 35.32 m/s, 19° | - | - |
| 1777665329 | 15.56° C | 72% | 1015.2 hPa | 0 mm | 35.32 m/s, 19° | - | - |
| 1777665029 | 15.56° C | 72% | 1015.2 hPa | 0 mm | 35.32 m/s, 19° | - | - |
| 1777664729 | 16.11° C | 70% | 1014.9 hPa | 0 mm | 33.98 m/s, 5° | - | - |
| 1777664429 | 16.11° C | 70% | 1014.9 hPa | 0 mm | 33.98 m/s, 5° | - | - |
| 1777664129 | 16.11° C | 70% | 1014.9 hPa | 0 mm | 33.98 m/s, 5° | - | - |
| 1777663829 | 16.11° C | 70% | 1014.9 hPa | 0 mm | 33.98 m/s, 5° | - | - |
| 1777663528 | 16.11° C | 70% | 1014.9 hPa | 0 mm | 33.98 m/s, 5° | - | - |
| 1777662928 | 16.11° C | 70% | 1014.9 hPa | 0 mm | 33.98 m/s, 5° | - | - |
| 1777662628 | 16.11° C | 68% | 1014.9 hPa | 0 mm | 42.02 m/s, 25° | - | - |
| 1777662328 | 16.11° C | 68% | 1014.9 hPa | 0 mm | 42.02 m/s, 25° | - | - |
| 1777662028 | 16.11° C | 68% | 1014.9 hPa | 0 mm | 42.02 m/s, 25° | - | - |
| 1777661728 | 16.11° C | 68% | 1014.9 hPa | 0 mm | 42.02 m/s, 25° | - | - |
| 1777661428 | 16.11° C | 68% | 1014.9 hPa | 0 mm | 42.02 m/s, 25° | - | - |
| 1777661128 | 16.11° C | 68% | 1014.9 hPa | 0 mm | 42.02 m/s, 25° | - | - |
| 1777660828 | 16.11° C | 68% | 1014.9 hPa | 0 mm | 42.02 m/s, 25° | - | - |
| 1777660527 | 16.11° C | 68% | 1014.9 hPa | 0 mm | 42.02 m/s, 25° | - | - |
| 1777660228 | 16.11° C | 68% | 1014.9 hPa | 0 mm | 42.02 m/s, 25° | - | - |
| 1777659927 | 16.11° C | 69% | 1014.9 hPa | 0 mm | 48.28 m/s, 13° | - | - |
* Rain latest hour (hover to see other rain measurements)
** Current wind speed in m/s (hover to see current wind gust speed)